Year,Month,Day,Hour,Minute,Value (Times are PST for windspeed in km/hr)
2022,05,19,00,00,1.40
2022,05,19,00,01,4.40
2022,05,19,00,02,4.80
2022,05,19,00,03,2.50
2022,05,19,00,04,0.90
2022,05,19,00,05,1.20
2022,05,19,00,06,0.60
2022,05,19,00,07,0.80
2022,05,19,00,08,3.50
2022,05,19,00,09,4.70
2022,05,19,00,10,3.30
2022,05,19,00,11,3.80
2022,05,19,00,12,3.80
2022,05,19,00,13,1.00
2022,05,19,00,14,1.00
2022,05,19,00,15,2.10
2022,05,19,00,16,2.90
2022,05,19,00,17,2.20
2022,05,19,00,18,2.90
2022,05,19,00,19,2.60
2022,05,19,00,20,4.10
2022,05,19,00,21,2.00
2022,05,19,00,22,5.50
2022,05,19,00,23,0.90
2022,05,19,00,24,1.00
2022,05,19,00,25,0.90
2022,05,19,00,26,2.20
2022,05,19,00,27,3.70
2022,05,19,00,28,3.10
2022,05,19,00,29,1.50
2022,05,19,00,30,6.00
2022,05,19,00,31,1.50
2022,05,19,00,32,2.20
2022,05,19,00,33,3.80
2022,05,19,00,34,2.70
2022,05,19,00,35,0.20
2022,05,19,00,36,0.40
2022,05,19,00,37,0.20
2022,05,19,00,38,1.00
2022,05,19,00,39,2.60
2022,05,19,00,40,1.00
2022,05,19,00,41,1.80
2022,05,19,00,42,3.10
2022,05,19,00,43,0.00
2022,05,19,00,44,1.30
2022,05,19,00,45,4.40
2022,05,19,00,46,3.30
2022,05,19,00,47,2.30
2022,05,19,00,48,2.00
2022,05,19,00,49,5.80
2022,05,19,00,50,5.40
2022,05,19,00,51,3.10
2022,05,19,00,52,1.40
2022,05,19,00,53,1.30
2022,05,19,00,54,0.10
2022,05,19,00,55,0.80
2022,05,19,00,56,1.20
2022,05,19,00,57,0.00
2022,05,19,00,58,0.50
2022,05,19,00,59,1.50
2022,05,19,01,00,0.50
2022,05,19,01,01,0.10
2022,05,19,01,02,1.70
2022,05,19,01,03,0.20
2022,05,19,01,04,0.80
2022,05,19,01,05,2.40
2022,05,19,01,06,0.20
2022,05,19,01,07,1.00
2022,05,19,01,08,0.30
2022,05,19,01,09,1.90
2022,05,19,01,10,1.60
2022,05,19,01,11,0.00
2022,05,19,01,12,0.00
2022,05,19,01,13,1.30
2022,05,19,01,14,0.90
2022,05,19,01,15,4.20
2022,05,19,01,16,3.10
2022,05,19,01,17,4.80
2022,05,19,01,18,4.60
2022,05,19,01,19,2.10
2022,05,19,01,20,0.10
2022,05,19,01,21,0.00
2022,05,19,01,22,1.00
2022,05,19,01,23,3.20
2022,05,19,01,24,3.40
2022,05,19,01,25,0.90
2022,05,19,01,26,1.30
2022,05,19,01,27,2.30
2022,05,19,01,28,1.40
2022,05,19,01,29,2.20
2022,05,19,01,30,2.90
2022,05,19,01,31,3.50
2022,05,19,01,32,5.40
2022,05,19,01,33,6.60
2022,05,19,01,34,3.80
2022,05,19,01,35,0.30
2022,05,19,01,36,1.90
2022,05,19,01,37,0.40
2022,05,19,01,38,0.10
2022,05,19,01,39,0.90
2022,05,19,01,40,1.10
2022,05,19,01,41,1.60
2022,05,19,01,42,0.20
2022,05,19,01,43,0.80
2022,05,19,01,44,0.50
2022,05,19,01,45,1.20
2022,05,19,01,46,0.30
2022,05,19,01,47,3.20
2022,05,19,01,48,2.90
2022,05,19,01,49,5.40
2022,05,19,01,50,3.30
2022,05,19,01,51,3.10
2022,05,19,01,52,5.80
2022,05,19,01,53,4.70
2022,05,19,01,54,3.00
2022,05,19,01,55,5.10
2022,05,19,01,56,5.10
2022,05,19,01,57,6.40
2022,05,19,01,58,5.20
2022,05,19,01,59,3.80
2022,05,19,02,00,7.40
2022,05,19,02,01,5.60
2022,05,19,02,02,5.20
2022,05,19,02,03,8.20
2022,05,19,02,04,5.30
2022,05,19,02,05,5.60
2022,05,19,02,06,6.00
2022,05,19,02,07,5.90
2022,05,19,02,08,4.50
2022,05,19,02,09,4.10
2022,05,19,02,10,3.80
2022,05,19,02,11,1.80
2022,05,19,02,12,3.10
2022,05,19,02,13,5.30
2022,05,19,02,14,6.40
2022,05,19,02,15,7.30
2022,05,19,02,16,8.40
2022,05,19,02,17,8.60
2022,05,19,02,18,6.40
2022,05,19,02,19,4.70
2022,05,19,02,20,8.40
2022,05,19,02,21,6.70
2022,05,19,02,22,5.90
2022,05,19,02,23,4.30
2022,05,19,02,24,8.90
2022,05,19,02,25,7.10
2022,05,19,02,26,2.00
2022,05,19,02,27,2.10
2022,05,19,02,28,1.50
2022,05,19,02,29,1.30
2022,05,19,02,30,2.20
2022,05,19,02,31,3.30
2022,05,19,02,32,3.10
2022,05,19,02,33,2.60
2022,05,19,02,34,5.60
2022,05,19,02,35,3.90
2022,05,19,02,36,1.10
2022,05,19,02,37,1.70
2022,05,19,02,38,3.70
2022,05,19,02,39,4.80
2022,05,19,02,40,7.70
2022,05,19,02,41,9.80
2022,05,19,02,42,10.30
2022,05,19,02,43,8.90
2022,05,19,02,44,8.30
2022,05,19,02,45,6.90
2022,05,19,02,46,6.60
2022,05,19,02,47,8.50
2022,05,19,02,48,8.50
2022,05,19,02,49,10.70
2022,05,19,02,50,8.10
2022,05,19,02,51,9.10
2022,05,19,02,52,10.80
2022,05,19,02,53,6.90
2022,05,19,02,54,8.50
2022,05,19,02,55,8.30
2022,05,19,02,56,7.40
2022,05,19,02,57,4.20
2022,05,19,02,58,3.80
2022,05,19,02,59,2.20
2022,05,19,03,00,0.80
2022,05,19,03,01,1.40
2022,05,19,03,02,6.90
2022,05,19,03,03,4.10
2022,05,19,03,04,0.70
2022,05,19,03,05,3.10
2022,05,19,03,06,5.30
2022,05,19,03,07,3.30
2022,05,19,03,08,1.00
2022,05,19,03,09,0.30
2022,05,19,03,10,0.20
2022,05,19,03,11,0.20
2022,05,19,03,12,0.00
2022,05,19,03,13,0.00
2022,05,19,03,14,1.90
2022,05,19,03,15,1.30
2022,05,19,03,16,3.50
2022,05,19,03,17,3.10
2022,05,19,03,18,3.20
2022,05,19,03,19,3.50
2022,05,19,03,20,5.20
2022,05,19,03,21,3.30
2022,05,19,03,22,0.50
2022,05,19,03,23,0.60
2022,05,19,03,24,0.30
2022,05,19,03,25,0.00
2022,05,19,03,26,1.10
2022,05,19,03,27,0.20
2022,05,19,03,28,0.10
2022,05,19,03,29,0.00
2022,05,19,03,30,0.00
2022,05,19,03,31,0.20
2022,05,19,03,32,0.70
2022,05,19,03,33,0.10
2022,05,19,03,34,0.00
2022,05,19,03,35,0.00
2022,05,19,03,36,0.90
2022,05,19,03,37,0.00
2022,05,19,03,38,0.00
2022,05,19,03,39,0.10
2022,05,19,03,40,0.00
2022,05,19,03,41,0.00
2022,05,19,03,42,0.00
2022,05,19,03,43,0.00
2022,05,19,03,44,0.00
2022,05,19,03,45,0.00
2022,05,19,03,46,0.00
2022,05,19,03,47,0.50
2022,05,19,03,48,0.50
2022,05,19,03,49,0.50
2022,05,19,03,50,0.20
2022,05,19,03,51,0.60
2022,05,19,03,52,1.70
2022,05,19,03,53,1.80
2022,05,19,03,54,2.00
2022,05,19,03,55,3.50
2022,05,19,03,56,1.60
2022,05,19,03,57,0.20
2022,05,19,03,58,1.50
2022,05,19,03,59,1.40
2022,05,19,04,00,0.10
2022,05,19,04,01,0.00
2022,05,19,04,02,0.00
2022,05,19,04,03,0.30
2022,05,19,04,04,0.00
2022,05,19,04,08,1.90
2022,05,19,04,09,0.00
2022,05,19,04,10,0.20
2022,05,19,04,11,1.10
2022,05,19,04,12,0.10
2022,05,19,04,13,1.50
2022,05,19,04,14,0.10
2022,05,19,04,15,0.60
2022,05,19,04,16,0.00
2022,05,19,04,17,0.00
2022,05,19,04,18,0.20
2022,05,19,04,19,0.20
2022,05,19,04,20,0.00
2022,05,19,04,21,0.70
2022,05,19,04,22,0.20
2022,05,19,04,23,0.10
2022,05,19,04,24,0.20
2022,05,19,04,25,0.50
2022,05,19,04,26,1.20
2022,05,19,04,27,0.50
2022,05,19,04,28,0.90
2022,05,19,04,29,0.10
2022,05,19,04,30,2.30
2022,05,19,04,31,0.10
2022,05,19,04,32,0.20
2022,05,19,04,33,0.10
2022,05,19,04,34,0.30
2022,05,19,04,35,0.50
2022,05,19,04,36,1.10
2022,05,19,04,37,0.40
2022,05,19,04,38,0.00
2022,05,19,04,39,0.00
2022,05,19,04,40,0.00
2022,05,19,04,41,0.10
2022,05,19,04,42,0.90
2022,05,19,04,43,0.80
2022,05,19,04,44,0.30
2022,05,19,04,45,0.10
2022,05,19,04,46,1.70
2022,05,19,04,47,0.90
2022,05,19,04,48,0.20
2022,05,19,04,49,2.70
2022,05,19,04,50,0.50
2022,05,19,04,51,1.70
2022,05,19,04,52,0.10
2022,05,19,04,53,1.20
2022,05,19,04,54,1.10
2022,05,19,04,55,0.00
2022,05,19,04,56,0.40
2022,05,19,04,57,0.70
2022,05,19,04,58,2.60
2022,05,19,04,59,1.10
2022,05,19,05,00,1.90
2022,05,19,05,01,0.40
2022,05,19,05,02,1.70
2022,05,19,05,03,0.50
2022,05,19,05,04,1.60
2022,05,19,05,05,2.00
2022,05,19,05,06,0.20
2022,05,19,05,07,0.00
2022,05,19,05,08,0.10
2022,05,19,05,09,0.90
2022,05,19,05,10,1.50
2022,05,19,05,11,1.60
2022,05,19,05,12,0.50
2022,05,19,05,13,0.20
2022,05,19,05,14,1.20
2022,05,19,05,15,0.20
2022,05,19,05,16,1.20
2022,05,19,05,17,0.10
2022,05,19,05,18,0.30
2022,05,19,05,19,0.00
2022,05,19,05,20,1.60
2022,05,19,05,21,0.80
2022,05,19,05,22,1.40
2022,05,19,05,23,0.00
2022,05,19,05,24,0.00
2022,05,19,05,25,0.00
2022,05,19,05,26,0.00
2022,05,19,05,27,0.00
2022,05,19,05,28,0.00
2022,05,19,05,29,0.00
2022,05,19,05,30,0.40
2022,05,19,05,31,0.20
2022,05,19,05,32,0.60
2022,05,19,05,33,0.00
2022,05,19,05,34,0.50
2022,05,19,05,35,1.00
2022,05,19,05,36,0.00
2022,05,19,05,37,0.00
2022,05,19,05,38,0.00
2022,05,19,05,39,0.20
2022,05,19,05,40,0.40
2022,05,19,05,41,0.00
2022,05,19,05,42,0.10
2022,05,19,05,43,0.00
2022,05,19,05,44,0.90
2022,05,19,05,45,0.80
2022,05,19,05,46,0.40
2022,05,19,05,47,0.10
2022,05,19,05,48,0.10
2022,05,19,05,49,0.00
2022,05,19,05,50,0.20
2022,05,19,05,51,0.20
2022,05,19,05,52,0.10
2022,05,19,05,53,1.00
2022,05,19,05,54,0.80
2022,05,19,05,55,0.70
2022,05,19,05,56,0.20
2022,05,19,05,57,0.70
2022,05,19,05,58,1.60
2022,05,19,05,59,0.90
2022,05,19,06,00,0.00
2022,05,19,06,01,1.70
2022,05,19,06,02,2.50
2022,05,19,06,03,1.30
2022,05,19,06,04,1.00
2022,05,19,06,05,0.00
2022,05,19,06,06,0.00
2022,05,19,06,07,0.00
2022,05,19,06,08,0.10
2022,05,19,06,09,0.60
2022,05,19,06,10,0.70
2022,05,19,06,11,0.60
2022,05,19,06,12,0.60
2022,05,19,06,13,0.80
2022,05,19,06,14,0.00
2022,05,19,06,15,0.10
2022,05,19,06,16,0.10
2022,05,19,06,17,2.50
2022,05,19,06,18,1.40
2022,05,19,06,19,0.30
2022,05,19,06,20,0.30
2022,05,19,06,21,1.20
2022,05,19,06,22,0.80
2022,05,19,06,23,0.10
2022,05,19,06,24,0.00
2022,05,19,06,25,0.00
2022,05,19,06,26,0.00
2022,05,19,06,27,0.00
2022,05,19,06,28,0.80
2022,05,19,06,29,2.20
2022,05,19,06,30,0.10
2022,05,19,06,31,4.20
2022,05,19,06,32,2.90
2022,05,19,06,33,2.90
2022,05,19,06,34,3.40
2022,05,19,06,35,1.80
2022,05,19,06,36,3.40
2022,05,19,06,37,4.40
2022,05,19,06,38,1.60
2022,05,19,06,39,2.40
2022,05,19,06,40,1.40
2022,05,19,06,41,0.10
2022,05,19,06,42,0.00
2022,05,19,06,43,0.00
2022,05,19,06,44,0.00
2022,05,19,06,45,0.00
2022,05,19,06,46,0.00
2022,05,19,06,47,0.00
2022,05,19,06,48,0.00
2022,05,19,06,49,0.00
2022,05,19,06,50,0.50
2022,05,19,06,51,2.60
2022,05,19,06,52,2.80
2022,05,19,06,53,0.70
2022,05,19,06,54,0.50
2022,05,19,06,55,3.30
2022,05,19,06,56,2.20
2022,05,19,06,57,1.50
2022,05,19,06,58,4.40
2022,05,19,06,59,4.90
2022,05,19,07,00,3.10
2022,05,19,07,01,2.30
2022,05,19,07,02,1.60
2022,05,19,07,03,3.50
2022,05,19,07,04,2.30
2022,05,19,07,05,1.30
2022,05,19,07,06,0.40
2022,05,19,07,07,0.30
2022,05,19,07,08,0.00
2022,05,19,07,09,0.00
2022,05,19,07,10,0.00
2022,05,19,07,11,0.00
2022,05,19,07,12,0.20
2022,05,19,07,13,0.60
2022,05,19,07,14,2.40
2022,05,19,07,15,0.90
2022,05,19,07,16,1.00
2022,05,19,07,17,0.30
2022,05,19,07,18,1.40
2022,05,19,07,19,0.80
2022,05,19,07,20,1.20
2022,05,19,07,21,0.20
2022,05,19,07,22,0.00
2022,05,19,07,23,0.00
2022,05,19,07,24,0.00
2022,05,19,07,25,0.00
2022,05,19,07,26,0.60
2022,05,19,07,27,0.10
2022,05,19,07,28,0.20
2022,05,19,07,29,0.20
2022,05,19,07,30,2.00
2022,05,19,07,31,1.00
2022,05,19,07,32,0.10
2022,05,19,07,33,0.80
2022,05,19,07,34,0.80
2022,05,19,07,35,3.30
2022,05,19,07,36,1.00
2022,05,19,07,37,0.20
2022,05,19,07,38,0.00
2022,05,19,07,39,0.10
2022,05,19,07,40,0.00
2022,05,19,07,41,0.60
2022,05,19,07,42,0.20
2022,05,19,07,43,0.00
2022,05,19,07,44,0.00
2022,05,19,07,45,0.80
2022,05,19,07,46,0.70
2022,05,19,07,47,0.30
2022,05,19,07,48,0.20
2022,05,19,07,49,0.30
2022,05,19,07,50,0.00
2022,05,19,07,51,0.00
2022,05,19,07,52,0.60
2022,05,19,07,53,1.50
2022,05,19,07,54,0.00
2022,05,19,07,55,1.50
2022,05,19,07,56,2.80
2022,05,19,07,57,0.10
2022,05,19,07,58,0.10
2022,05,19,07,59,0.10
2022,05,19,08,00,0.10
2022,05,19,08,01,1.50
2022,05,19,08,02,0.80
2022,05,19,08,03,1.50
2022,05,19,08,04,3.50
2022,05,19,08,05,6.90
2022,05,19,08,06,3.50
2022,05,19,08,07,2.90
2022,05,19,08,08,1.50
2022,05,19,08,09,2.50
2022,05,19,08,10,3.00
2022,05,19,08,11,2.00
2022,05,19,08,12,1.10
2022,05,19,08,13,0.20
2022,05,19,08,14,0.10
2022,05,19,08,15,0.00
2022,05,19,08,16,0.30
2022,05,19,08,17,0.00
2022,05,19,08,18,1.10
2022,05,19,08,19,1.60
2022,05,19,08,20,3.10
2022,05,19,08,21,6.30
2022,05,19,08,22,5.30
2022,05,19,08,23,4.60
2022,05,19,08,24,2.90
2022,05,19,08,25,0.20
2022,05,19,08,26,1.90
2022,05,19,08,27,2.10
2022,05,19,08,28,1.50
2022,05,19,08,29,3.80
2022,05,19,08,30,0.80
2022,05,19,08,31,0.10
2022,05,19,08,32,0.20
2022,05,19,08,33,0.90
2022,05,19,08,34,0.40
2022,05,19,08,35,0.10
2022,05,19,08,36,0.80
2022,05,19,08,37,2.40
2022,05,19,08,38,1.40
2022,05,19,08,39,0.40
2022,05,19,08,40,0.10
2022,05,19,08,41,0.00
2022,05,19,08,42,1.70
2022,05,19,08,43,0.70
2022,05,19,08,44,0.80
2022,05,19,08,45,1.00
2022,05,19,08,46,0.80
2022,05,19,08,47,4.50
2022,05,19,08,48,4.20
2022,05,19,08,49,3.70
2022,05,19,08,50,2.50
2022,05,19,08,51,4.80
2022,05,19,08,52,5.60
2022,05,19,08,53,5.50
2022,05,19,08,54,1.80
2022,05,19,08,55,2.90
2022,05,19,08,56,5.40
2022,05,19,08,57,4.40
2022,05,19,08,58,3.50
2022,05,19,08,59,2.50
2022,05,19,09,00,0.60
2022,05,19,09,01,2.00
2022,05,19,09,02,0.90
2022,05,19,09,03,0.60
2022,05,19,09,04,0.10
2022,05,19,09,05,0.80
2022,05,19,09,06,0.20
2022,05,19,09,07,0.50
2022,05,19,09,08,1.50
2022,05,19,09,09,5.10
2022,05,19,09,10,7.50
2022,05,19,09,11,6.50
2022,05,19,09,12,2.30
2022,05,19,09,13,0.00
2022,05,19,09,14,0.00
2022,05,19,09,15,0.70
2022,05,19,09,16,0.50
2022,05,19,09,17,0.20
2022,05,19,09,18,0.40
2022,05,19,09,19,0.20
2022,05,19,09,20,0.10
2022,05,19,09,21,0.20
2022,05,19,09,22,0.00
2022,05,19,09,23,0.00
2022,05,19,09,24,0.00
2022,05,19,09,25,0.00
2022,05,19,09,26,1.10
2022,05,19,09,27,2.50
2022,05,19,09,28,2.50
2022,05,19,09,29,1.80
2022,05,19,09,30,1.10
2022,05,19,09,31,1.40
2022,05,19,09,32,3.60
2022,05,19,09,33,2.60
2022,05,19,09,34,0.20
2022,05,19,09,35,0.00
2022,05,19,09,36,0.10
2022,05,19,09,37,0.10
2022,05,19,09,38,0.00
2022,05,19,09,39,0.10
2022,05,19,09,40,0.00
2022,05,19,09,41,0.10
2022,05,19,09,42,0.80
2022,05,19,09,43,1.50
2022,05,19,09,44,2.70
2022,05,19,09,45,1.80
2022,05,19,09,46,2.30
2022,05,19,09,47,2.00
2022,05,19,09,48,0.20
2022,05,19,09,49,0.20
2022,05,19,09,50,1.70
2022,05,19,09,51,4.40
2022,05,19,09,52,2.50
2022,05,19,09,53,2.10
2022,05,19,09,54,8.40
2022,05,19,09,55,6.40
2022,05,19,09,56,3.20
2022,05,19,09,57,3.20
2022,05,19,09,58,2.30
2022,05,19,09,59,0.90
2022,05,19,10,00,7.10
2022,05,19,10,01,4.70
2022,05,19,10,02,4.00
2022,05,19,10,03,6.80
2022,05,19,10,04,4.50
2022,05,19,10,05,3.00
2022,05,19,10,06,3.90
2022,05,19,10,07,7.20
2022,05,19,10,08,6.80
2022,05,19,10,09,4.80
2022,05,19,10,10,4.50
2022,05,19,10,11,7.10
2022,05,19,10,12,7.60
2022,05,19,10,13,6.50
2022,05,19,10,14,1.80
2022,05,19,10,15,0.50
2022,05,19,10,16,3.80
2022,05,19,10,17,1.90
2022,05,19,10,18,2.70
2022,05,19,10,19,0.20
2022,05,19,10,20,1.40
2022,05,19,10,21,0.40
2022,05,19,10,22,1.40
2022,05,19,10,23,0.00
2022,05,19,10,24,0.20
2022,05,19,10,25,0.90
2022,05,19,10,26,0.70
2022,05,19,10,27,0.20
2022,05,19,10,28,0.10
2022,05,19,10,29,0.90
2022,05,19,10,30,1.50
2022,05,19,10,31,7.50
2022,05,19,10,32,9.70
2022,05,19,10,33,1.30
2022,05,19,10,34,2.30
2022,05,19,10,35,1.20
2022,05,19,10,36,1.00
2022,05,19,10,37,1.30
2022,05,19,10,38,2.30
2022,05,19,10,39,1.50
2022,05,19,10,40,2.20
2022,05,19,10,41,2.50
2022,05,19,10,42,4.10
2022,05,19,10,43,0.20
2022,05,19,10,44,1.30
2022,05,19,10,45,4.10
2022,05,19,10,46,9.40
2022,05,19,10,47,5.40
2022,05,19,10,48,4.80
2022,05,19,10,49,3.10
2022,05,19,10,50,6.60
2022,05,19,10,51,2.80
2022,05,19,10,52,0.50
2022,05,19,10,53,1.90
2022,05,19,10,54,9.20
2022,05,19,10,55,2.80
2022,05,19,10,56,2.10
2022,05,19,10,57,4.20
2022,05,19,10,58,2.30
2022,05,19,10,59,0.50
2022,05,19,11,00,6.20
2022,05,19,11,01,3.80
2022,05,19,11,02,2.80
2022,05,19,11,03,7.70
2022,05,19,11,04,5.40
2022,05,19,11,05,6.00
2022,05,19,11,06,7.20
2022,05,19,11,07,7.20
2022,05,19,11,08,4.40
2022,05,19,11,09,4.40
2022,05,19,11,10,4.30
2022,05,19,11,11,6.80
2022,05,19,11,12,3.90
2022,05,19,11,13,7.70
2022,05,19,11,14,7.00
2022,05,19,11,15,6.40
2022,05,19,11,16,5.90
2022,05,19,11,17,7.60
2022,05,19,11,18,6.00
2022,05,19,11,19,4.40
2022,05,19,11,20,11.00
2022,05,19,11,21,9.20
2022,05,19,11,22,3.30
2022,05,19,11,23,6.10
2022,05,19,11,24,2.50
2022,05,19,11,25,1.70
2022,05,19,11,26,1.40
2022,05,19,11,27,6.50
2022,05,19,11,28,5.00
2022,05,19,11,29,10.40
2022,05,19,11,30,8.90
2022,05,19,11,31,5.50
2022,05,19,11,32,3.10
2022,05,19,11,33,7.00
2022,05,19,11,34,5.40
2022,05,19,11,35,8.00
2022,05,19,11,36,3.50
2022,05,19,11,37,6.40
2022,05,19,11,38,4.20
2022,05,19,11,39,3.60
2022,05,19,11,40,7.10
2022,05,19,11,41,6.30
2022,05,19,11,42,6.50
2022,05,19,11,43,5.40
2022,05,19,11,44,2.50
2022,05,19,11,45,3.10
2022,05,19,11,46,12.00
2022,05,19,11,47,9.90
2022,05,19,11,48,9.80
2022,05,19,11,49,5.80
2022,05,19,11,50,6.70
2022,05,19,11,51,8.90
2022,05,19,11,52,8.90
2022,05,19,11,53,6.70
2022,05,19,11,54,8.80
2022,05,19,11,55,5.50
2022,05,19,11,56,8.40
2022,05,19,11,57,5.50
2022,05,19,11,58,7.00
2022,05,19,11,59,5.60
2022,05,19,12,00,1.70
2022,05,19,12,01,2.10
2022,05,19,12,02,8.30
2022,05,19,12,03,4.90
2022,05,19,12,04,5.80
2022,05,19,12,05,4.70
2022,05,19,12,06,3.00
2022,05,19,12,07,4.10
2022,05,19,12,08,8.50
2022,05,19,12,09,9.00
2022,05,19,12,10,7.60
2022,05,19,12,11,7.00
2022,05,19,12,12,9.50
2022,05,19,12,13,7.00
2022,05,19,12,14,1.70
2022,05,19,12,15,1.50
2022,05,19,12,16,6.30
2022,05,19,12,17,5.30
2022,05,19,12,18,1.70
2022,05,19,12,19,10.80
2022,05,19,12,20,9.70
2022,05,19,12,21,8.20
2022,05,19,12,22,5.20
2022,05,19,12,23,1.80
2022,05,19,12,24,1.10
2022,05,19,12,25,8.70
2022,05,19,12,26,7.70
2022,05,19,12,27,5.40
2022,05,19,12,28,7.20
2022,05,19,12,29,4.50
2022,05,19,12,30,7.00
2022,05,19,12,31,3.60
2022,05,19,12,32,4.20
2022,05,19,12,33,2.70
2022,05,19,12,34,3.90
2022,05,19,12,35,1.50
2022,05,19,12,36,3.70
2022,05,19,12,37,4.10
2022,05,19,12,38,1.50
2022,05,19,12,39,2.00
2022,05,19,12,40,3.90
2022,05,19,12,41,5.40
2022,05,19,12,42,7.20
2022,05,19,12,43,2.70
2022,05,19,12,44,4.20
2022,05,19,12,45,1.10
2022,05,19,12,46,0.90
2022,05,19,12,47,1.80
2022,05,19,12,48,1.00
2022,05,19,12,49,0.00
2022,05,19,12,50,1.90
2022,05,19,12,51,5.20
2022,05,19,12,52,8.60
2022,05,19,12,53,3.40
2022,05,19,12,54,9.20
2022,05,19,12,55,10.30
2022,05,19,12,56,6.40
2022,05,19,12,57,3.90
2022,05,19,12,58,6.90
2022,05,19,12,59,7.80
2022,05,19,13,00,4.80
2022,05,19,13,01,3.90
2022,05,19,13,02,4.70
2022,05,19,13,03,4.40
2022,05,19,13,04,5.30
2022,05,19,13,05,3.50
2022,05,19,13,06,3.00
2022,05,19,13,07,1.50
2022,05,19,13,08,1.90
2022,05,19,13,09,6.40
2022,05,19,13,10,5.10
2022,05,19,13,11,4.20
2022,05,19,13,12,5.40
2022,05,19,13,13,7.30
2022,05,19,13,14,8.50
2022,05,19,13,15,8.20
2022,05,19,13,16,11.70
2022,05,19,13,17,10.20
2022,05,19,13,18,8.30
2022,05,19,13,19,5.30
2022,05,19,13,20,12.90
2022,05,19,13,21,7.50
2022,05,19,13,22,6.00
2022,05,19,13,23,8.70
2022,05,19,13,24,6.80
2022,05,19,13,25,10.40
2022,05,19,13,26,6.40
2022,05,19,13,27,8.50
2022,05,19,13,28,8.70
2022,05,19,13,29,9.70
2022,05,19,13,30,8.60
2022,05,19,13,31,11.30
2022,05,19,13,32,8.90
2022,05,19,13,33,5.60
2022,05,19,13,34,7.50
2022,05,19,13,35,8.10
2022,05,19,13,36,10.90
2022,05,19,13,37,9.80
2022,05,19,13,38,9.70
2022,05,19,13,39,5.60
2022,05,19,13,40,10.60
2022,05,19,13,41,7.20
2022,05,19,13,42,9.80
2022,05,19,13,43,9.80
2022,05,19,13,44,11.00
2022,05,19,13,45,15.90
2022,05,19,13,46,13.30
2022,05,19,13,47,10.30
2022,05,19,13,48,10.30
2022,05,19,13,49,12.90
2022,05,19,13,50,10.30
2022,05,19,13,51,6.00
2022,05,19,13,52,3.10
2022,05,19,13,53,2.80
2022,05,19,13,54,5.60
2022,05,19,13,55,8.90
2022,05,19,13,56,11.20
2022,05,19,13,57,14.40
2022,05,19,13,58,9.60
2022,05,19,13,59,11.00
2022,05,19,14,00,11.50
2022,05,19,14,01,9.10
2022,05,19,14,02,10.80
2022,05,19,14,03,9.70
2022,05,19,14,04,10.10
2022,05,19,14,05,7.00
2022,05,19,14,06,3.90
2022,05,19,14,07,4.30
2022,05,19,14,08,8.20
2022,05,19,14,09,3.30
2022,05,19,14,10,0.80
2022,05,19,14,11,1.90
2022,05,19,14,12,0.10
2022,05,19,14,13,0.20
2022,05,19,14,14,4.70
2022,05,19,14,15,5.60
2022,05,19,14,16,2.60
2022,05,19,14,17,0.00
2022,05,19,14,18,0.10
2022,05,19,14,19,3.40
2022,05,19,14,20,7.50
2022,05,19,14,21,6.70
2022,05,19,14,22,8.10
2022,05,19,14,23,8.80
2022,05,19,14,24,9.10
2022,05,19,14,25,6.00
2022,05,19,14,26,5.80
2022,05,19,14,27,4.10
2022,05,19,14,28,6.10
2022,05,19,14,29,5.20
2022,05,19,14,30,6.90
2022,05,19,14,31,7.20
2022,05,19,14,32,6.80
2022,05,19,14,33,8.10
2022,05,19,14,34,5.80
2022,05,19,14,35,1.50
2022,05,19,14,36,3.10
2022,05,19,14,37,2.60
2022,05,19,14,38,4.40
2022,05,19,14,39,3.70
2022,05,19,14,40,0.20
2022,05,19,14,41,0.00
2022,05,19,14,42,0.10
2022,05,19,14,43,2.80
2022,05,19,14,44,0.50
2022,05,19,14,45,0.40
2022,05,19,14,46,0.30
2022,05,19,14,47,2.40
2022,05,19,14,48,4.80
2022,05,19,14,49,7.10
2022,05,19,14,50,7.90
2022,05,19,14,51,7.70
2022,05,19,14,52,6.10
2022,05,19,14,53,6.90
2022,05,19,14,54,2.10
2022,05,19,14,55,3.00
2022,05,19,14,56,4.90
2022,05,19,14,57,6.30
2022,05,19,14,58,6.40
2022,05,19,14,59,0.90
2022,05,19,15,00,5.40
2022,05,19,15,01,5.40
2022,05,19,15,02,6.20
2022,05,19,15,03,5.50
2022,05,19,15,04,1.50
2022,05,19,15,05,0.70
2022,05,19,15,06,0.30
2022,05,19,15,07,1.20
2022,05,19,15,08,9.50
2022,05,19,15,09,7.50
2022,05,19,15,10,4.40
2022,05,19,15,11,0.80
2022,05,19,15,12,1.40
2022,05,19,15,13,0.60
2022,05,19,15,14,1.10
2022,05,19,15,15,1.50
2022,05,19,15,16,0.50
2022,05,19,15,17,1.00
2022,05,19,15,18,1.90
2022,05,19,15,19,6.10
2022,05,19,15,20,4.90
2022,05,19,15,21,2.30
2022,05,19,15,22,3.20
2022,05,19,15,23,0.80
2022,05,19,15,24,0.20
2022,05,19,15,25,0.10
2022,05,19,15,26,1.00
2022,05,19,15,27,0.80
2022,05,19,15,28,1.20
2022,05,19,15,29,1.70
2022,05,19,15,30,2.10
2022,05,19,15,31,3.80
2022,05,19,15,32,1.80
2022,05,19,15,33,0.60
2022,05,19,15,34,2.50
2022,05,19,15,35,4.70
2022,05,19,15,36,9.80
2022,05,19,15,37,6.10
2022,05,19,15,38,1.20
2022,05,19,15,39,2.80
2022,05,19,15,40,3.10
2022,05,19,15,41,3.30
2022,05,19,15,42,3.30
2022,05,19,15,43,4.60
2022,05,19,15,44,5.50
2022,05,19,15,45,2.00
2022,05,19,15,46,1.20
2022,05,19,15,47,3.60
2022,05,19,15,48,8.30
2022,05,19,15,49,8.40
2022,05,19,15,50,5.40
2022,05,19,15,51,2.80
2022,05,19,15,52,3.40
2022,05,19,15,53,5.40
2022,05,19,15,54,2.20
2022,05,19,15,55,0.70
2022,05,19,15,56,1.10
2022,05,19,15,57,2.50
2022,05,19,15,58,0.80
2022,05,19,15,59,2.90
2022,05,19,16,00,4.40
2022,05,19,16,01,2.40
2022,05,19,16,02,6.60
2022,05,19,16,03,3.70
2022,05,19,16,04,3.40
2022,05,19,16,05,0.80
2022,05,19,16,06,5.50
2022,05,19,16,07,7.30
2022,05,19,16,08,8.10
2022,05,19,16,09,8.90
2022,05,19,16,10,10.40
2022,05,19,16,11,10.90
2022,05,19,16,12,6.90
2022,05,19,16,13,2.40
2022,05,19,16,14,4.10
2022,05,19,16,15,4.40
2022,05,19,16,16,2.80
2022,05,19,16,17,9.40
2022,05,19,16,18,5.20
2022,05,19,16,19,4.70
2022,05,19,16,20,2.10
2022,05,19,16,21,2.80
2022,05,19,16,22,3.10
2022,05,19,16,23,1.60
2022,05,19,16,24,4.60
2022,05,19,16,25,0.30
2022,05,19,16,26,0.30
2022,05,19,16,27,2.30
2022,05,19,16,28,3.40
2022,05,19,16,29,3.10
2022,05,19,16,30,1.20
2022,05,19,16,31,2.40
2022,05,19,16,32,0.40
2022,05,19,16,33,1.20
2022,05,19,16,34,1.70
2022,05,19,16,35,4.70
2022,05,19,16,36,2.50
2022,05,19,16,37,0.70
2022,05,19,16,38,1.20
2022,05,19,16,39,3.80
2022,05,19,16,40,3.70
2022,05,19,16,41,1.40
2022,05,19,16,42,4.00
2022,05,19,16,43,1.50
2022,05,19,16,44,2.40
2022,05,19,16,45,0.80
2022,05,19,16,46,0.10
2022,05,19,16,47,0.50
2022,05,19,16,48,0.20
2022,05,19,16,49,2.30
2022,05,19,16,50,0.30
2022,05,19,16,51,2.30
2022,05,19,16,52,1.40
2022,05,19,16,53,4.60
2022,05,19,16,54,3.30
2022,05,19,16,55,1.10
2022,05,19,16,56,4.00
2022,05,19,16,57,1.80
2022,05,19,16,58,0.30
2022,05,19,16,59,0.50
2022,05,19,17,00,1.70
2022,05,19,17,01,0.70
2022,05,19,17,02,4.10
2022,05,19,17,03,0.10
2022,05,19,17,04,0.70
2022,05,19,17,05,0.90
2022,05,19,17,06,3.40
2022,05,19,17,07,1.30
2022,05,19,17,08,4.40
2022,05,19,17,09,4.40
2022,05,19,17,10,8.50
2022,05,19,17,11,5.60
2022,05,19,17,12,6.10
2022,05,19,17,13,4.20
2022,05,19,17,14,6.50
2022,05,19,17,15,5.10
2022,05,19,17,16,3.90
2022,05,19,17,17,5.50
2022,05,19,17,18,4.20
2022,05,19,17,19,9.40
2022,05,19,17,20,2.60
2022,05,19,17,21,7.40
2022,05,19,17,22,8.30
2022,05,19,17,23,12.10
2022,05,19,17,24,4.30
2022,05,19,17,25,6.50
2022,05,19,17,26,10.70
2022,05,19,17,27,10.40
2022,05,19,17,28,9.60
2022,05,19,17,29,10.80
2022,05,19,17,30,5.00
2022,05,19,17,31,5.80
2022,05,19,17,32,2.70
2022,05,19,17,33,10.50
2022,05,19,17,34,5.70
2022,05,19,17,35,5.80
2022,05,19,17,36,3.50
2022,05,19,17,37,7.90
2022,05,19,17,38,5.70
2022,05,19,17,39,4.40
2022,05,19,17,40,8.60
2022,05,19,17,41,5.30
2022,05,19,17,42,2.60
2022,05,19,17,43,5.70
2022,05,19,17,44,3.60
2022,05,19,17,45,7.00
2022,05,19,17,46,2.30
2022,05,19,17,47,2.10
2022,05,19,17,48,2.10
2022,05,19,17,49,0.80
2022,05,19,17,50,5.70
2022,05,19,17,51,2.60
2022,05,19,17,52,3.40
2022,05,19,17,53,1.60
2022,05,19,17,54,1.10
2022,05,19,17,55,3.70
2022,05,19,17,56,4.20
2022,05,19,17,57,2.30
2022,05,19,17,58,5.60
2022,05,19,17,59,2.50
2022,05,19,18,00,5.30
2022,05,19,18,01,1.50
2022,05,19,18,02,1.90
2022,05,19,18,03,4.10
2022,05,19,18,04,4.20
2022,05,19,18,05,2.70
2022,05,19,18,06,1.50
2022,05,19,18,07,5.70
2022,05,19,18,08,3.70